Location: Bottens
(46.6171°N, 6.6605°E)
Time: 00:21:49
(UTC+00:00)

Lacrosse 5 rocket - Pass Details

Date: 20 June 2021
Orbit: 459 x 634 km, 57.0° (Epoch: 25 July)

Event Time Altitude Azimuth Distance (km) Brightness Sun altitude
Rises 01:29:06 0° 310° (NW) 2,487 4.8 -15.3°
Reaches altitude 10° 01:31:30 10° 325° (NW) 1,613 4.1 -15.2°
Maximum altitude 01:34:30 24° 21° (NNE) 1,004 3.6 -14.9°
Drops below altitude 10° 01:37:33 10° 78° (ENE) 1,640 4.3 -14.7°
Sets 01:40:01 0° 92° (E) 2,540 5.1 -14.5°
